Weather History for KJBR - July, 2013

Change the Weather History Date:

Monday, July 15, 2013

  Actual Average Record
Temperature  
Mean Temperature 81 °F 81 °F  
Max Temperature 90 °F 91 °F 106 °F (1980)
Min Temperature 72 °F 71 °F 54 °F (1926)
Degree Days  
Heating Degree Days 0 0  
Month to date heating degree days 0 0  
Since 1 June heating degree days 0 1  
Since 1 July heating degree days 0 0  
Cooling Degree Days 16 16  
Month to date cooling degree days 217 239  
Year to date cooling degree days 896 835  
Since 1 June cooling degree days 666 622  
Growing Degree Days 30 (Base 50)    
Moisture  
Dew Point 72 °F    
Average Humidity 75    
Maximum Humidity 93    
Minimum Humidity 56    
Precipitation  
Precipitation T in 0.12 in 3.05 in (1917)
Month to date precipitation 0.25 1.94  
Year to date precipitation 30.59 26.97  
Snow  
Snow 0.00 in 0.00 in - ()
Month to date snowfall 0.0 0.0  
Since 1 June snowfall 0.0 0.0  
Since 1 July snowfall 0.0 0.0  
Snow Depth 0.00 in    
Sea Level Pressure  
Sea Level Pressure 30.14 in    
Wind  
Wind Speed 7 mph (East)    
Max Wind Speed 22 mph    
Max Gust Speed 28 mph    
Visibility 10 miles    
Events Rain , Thunderstorm    
T = Trace of Precipitation, MM = Missing Value Source: NWS Daily Summary

Daily Weather History Graph

Daily Weather History Graph

Search for Another Location

Airport or City:

Trip Planner

Search our weather history database for the weather conditions in past years. The results will help you decide how hot, cold, wet, or windy it might be!

Date:

Astronomy

Jul. 15, 2013 Rise Set
Actual Time 5:58 AM CDT 8:18 PM CDT
Civil Twilight 5:28 AM CDT 8:48 PM CDT
Nautical Twilight 4:52 AM CDT 9:24 PM CDT
Astronomical Twilight 4:12 AM CDT 10:03 PM CDT
Moon 1:01 PM CDT (7/15) No Moon Set
Length of Visible Light 15h 19m
Length of Day
14h 20m
Waxing Crescent, 45% of the Moon is Illuminated
Jul 15
Waxing Crescent
Jul 15
First Quarter
Jul 22
Full
Jul 29
Last Quarter
Aug 6
New

Hourly Weather History & Observations

Time (CDT) Temp. Heat Index Dew Point Humidity Pressure Visibility Wind Dir Wind Speed Gust Speed Precip Events Conditions
12:53 AM 73.0 °F - 70.0 °F 90% 30.07 in 10.0 mi ENE 5.8 mph - N/A   Clear
1:53 AM 73.0 °F - 70.0 °F 90% 30.08 in 10.0 mi ENE 5.8 mph - N/A   Clear
2:53 AM 72.0 °F - 70.0 °F 93% 30.08 in 10.0 mi NE 4.6 mph - N/A   Clear
3:53 AM 73.0 °F - 70.0 °F 90% 30.08 in 10.0 mi ENE 5.8 mph - N/A   Clear
4:53 AM 72.0 °F - 70.0 °F 93% 30.10 in 10.0 mi NE 3.5 mph - N/A   Clear
5:53 AM 72.0 °F - 70.0 °F 93% 30.12 in 10.0 mi NE 3.5 mph - N/A   Scattered Clouds
6:53 AM 75.0 °F - 71.1 °F 87% 30.14 in 10.0 mi ENE 3.5 mph - N/A   Overcast
7:53 AM 77.0 °F - 72.0 °F 84% 30.15 in 10.0 mi Calm Calm - N/A   Overcast
8:53 AM 79.0 °F - 72.0 °F 79% 30.17 in 10.0 mi ESE 8.1 mph - N/A   Overcast
9:53 AM 78.1 °F - 73.0 °F 84% 30.18 in 6.0 mi SE 6.9 mph - 0.00 in Rain Light Rain
10:32 AM 80.6 °F 85.4 °F 73.4 °F 79% 30.19 in 10.0 mi East 5.8 mph - 0.00 in   Overcast
10:53 AM 82.0 °F 87.9 °F 73.9 °F 76% 30.18 in 10.0 mi ESE 6.9 mph - 0.00 in   Mostly Cloudy
11:06 AM 82.4 °F 88.2 °F 73.4 °F 74% 30.19 in 10.0 mi ESE 9.2 mph - N/A   Overcast
11:53 AM 84.0 °F 90.2 °F 73.0 °F 69% 30.17 in 10.0 mi SE 11.5 mph - N/A   Mostly Cloudy
12:19 PM 86.0 °F 93.4 °F 73.4 °F 66% 30.17 in 10.0 mi East 8.1 mph - N/A   Scattered Clouds
12:53 PM 87.1 °F 93.6 °F 72.0 °F 61% 30.15 in 10.0 mi ESE 11.5 mph - N/A   Scattered Clouds
1:53 PM 89.1 °F 95.0 °F 71.1 °F 55% 30.13 in 10.0 mi ESE 10.4 mph 18.4 mph N/A   Mostly Cloudy
2:22 PM 89.6 °F 96.2 °F 71.6 °F 55% 30.14 in 10.0 mi ESE 11.5 mph 18.4 mph N/A Thunderstorm Mostly Cloudy
2:43 PM 84.2 °F 89.6 °F 71.6 °F 66% 30.14 in 10.0 mi SSW 11.5 mph 20.7 mph N/A   Mostly Cloudy
2:53 PM 81.0 °F 85.2 °F 72.0 °F 74% 30.14 in 10.0 mi SSW 6.9 mph - N/A   Overcast
3:53 PM 87.1 °F 94.5 °F 73.0 °F 63% 30.12 in 10.0 mi South 8.1 mph - N/A   Clear
4:53 PM 89.1 °F 97.0 °F 73.0 °F 59% 30.09 in 10.0 mi South 6.9 mph - N/A   Partly Cloudy
5:53 PM 81.0 °F 84.4 °F 70.0 °F 69% 30.12 in 10.0 mi East 13.8 mph - N/A   Mostly Cloudy
6:02 PM 80.6 °F 84.6 °F 71.6 °F 74% 30.13 in 10.0 mi East 10.4 mph - N/A   Scattered Clouds
6:53 PM 81.0 °F 84.9 °F 71.1 °F 72% 30.12 in 10.0 mi ENE 6.9 mph - N/A   Partly Cloudy
7:53 PM 82.0 °F 86.7 °F 72.0 °F 71% 30.13 in 10.0 mi East 5.8 mph - N/A   Clear
8:53 PM 80.1 °F 84.2 °F 73.0 °F 79% 30.15 in 10.0 mi ENE 6.9 mph - N/A   Scattered Clouds
9:53 PM 79.0 °F - 72.0 °F 79% 30.18 in 10.0 mi ENE 6.9 mph - N/A   Mostly Cloudy
10:53 PM 77.0 °F - 72.0 °F 84% 30.19 in 10.0 mi East 4.6 mph - N/A   Partly Cloudy
11:53 PM 75.9 °F - 72.0 °F 87% 30.18 in 10.0 mi ENE 4.6 mph - N/A   Partly Cloudy